| time (UTC) | temp C | wind direction | speed KPH | gust KPH | rain 1hr cm | rain 24hr cm | rain mn cm | humidity % | barometer mb |
| 20260503222033 | 18 | 218 | 0.0 | 1.6 | 0.00 | 0.00 | 0.00 | 15 | 1012.0 |
| 20260503221018 | 18 | 0.0 | 0.0 | 0.00 | 0.00 | 0.00 | 13 | 1012.0 | |
| 20260503220047 | 18 | 0.0 | 0.0 | 0.00 | 0.00 | 0.00 | 12 | 1012.0 | |
| 20260503215046 | 19 | 0.0 | 0.0 | 0.00 | 0.00 | 0.00 | 10 | 1012.0 | |
| 20260503214035 | 19 | 225 | 0.0 | 1.6 | 0.00 | 0.00 | 0.00 | 9 | 1012.0 |
| 20260503213105 | 19 | 0.0 | 0.0 | 0.00 | 0.00 | 0.00 | 7 | 1012.0 | |
| 20260503212024 | 20 | 225 | 1.6 | 1.6 | 0.00 | 0.00 | 0.00 | 7 | 1012.0 |
| 20260503211035 | 20 | 0.0 | 0.0 | 0.00 | 0.00 | 0.00 | 6 | 1012.0 | |
| 20260503210032 | 20 | 0.0 | 0.0 | 0.00 | 0.00 | 0.00 | 5 | 1012.0 | |
| 20260503205016 | 20 | 0.0 | 0.0 | 0.00 | 0.00 | 0.00 | 5 | 1012.0 | |
| 20260503204029 | 20 | 0.0 | 0.0 | 0.00 | 0.00 | 0.00 | 5 | 1012.0 | |
| 20260503203018 | 20 | 0.0 | 0.0 | 0.00 | 0.00 | 0.00 | 4 | 1012.0 | |
| 20260503202038 | 20 | 0.0 | 0.0 | 0.00 | 0.00 | 0.00 | 4 | 1012.0 | |
| 20260503201046 | 20 | 0.0 | 0.0 | 0.00 | 0.00 | 0.00 | 4 | 1012.0 | |
| 20260503200035 | 20 | 0.0 | 0.0 | 0.00 | 0.00 | 0.00 | 4 | 1012.0 | |
| 20260503195045 | 20 | 0.0 | 0.0 | 0.00 | 0.00 | 0.00 | 4 | 1012.0 | |
| 20260503194037 | 20 | 0.0 | 0.0 | 0.00 | 0.00 | 0.00 | 4 | 1012.0 | |
| 20260503193051 | 21 | 0.0 | 0.0 | 0.00 | 0.00 | 0.00 | 4 | 1012.0 | |
| 20260503192101 | 21 | 0.0 | 0.0 | 0.00 | 0.00 | 0.00 | 3 | 1012.0 | |
| 20260503191024 | 21 | 0.0 | 0.0 | 0.00 | 0.00 | 0.00 | 3 | 1012.0 | |
| 20260503190027 | 21 | 0.0 | 0.0 | 0.00 | 0.00 | 0.00 | 3 | 1012.0 | |
| 20260503185104 | 22 | 0.0 | 0.0 | 0.00 | 0.00 | 0.00 | 3 | 1012.0 | |
| 20260503184022 | 22 | 0.0 | 0.0 | 0.00 | 0.00 | 0.00 | 3 | 1012.0 | |
| 20260503183056 | 22 | 203 | 0.0 | 1.6 | 0.00 | 0.00 | 0.00 | 3 | 1012.0 |
| 20260503182017 | 22 | 225 | 0.0 | 1.6 | 0.00 | 0.00 | 0.00 | 3 | 1012.0 |
| 20260503181020 | 23 | 212 | 1.6 | 3.2 | 0.00 | 0.00 | 0.00 | 2 | 1012.0 |
| 20260503180038 | 23 | 217 | 1.6 | 1.6 | 0.00 | 0.00 | 0.00 | 2 | 1012.0 |
| 20260503175022 | 23 | 223 | 1.6 | 3.2 | 0.00 | 0.00 | 0.00 | 2 | 1012.0 |
| 20260503174052 | 23 | 220 | 1.6 | 3.2 | 0.00 | 0.00 | 0.00 | 2 | 1012.0 |
| 20260503173046 | 23 | 257 | 1.6 | 3.2 | 0.00 | 0.00 | 0.00 | 2 | 1012.0 |
| 20260503172031 | 24 | 210 | 1.6 | 1.6 | 0.00 | 0.00 | 0.00 | 2 | 1012.0 |
| 20260503171054 | 24 | 239 | 1.6 | 4.8 | 0.00 | 0.00 | 0.00 | 2 | 1012.0 |
| 20260503131022 | 28 | 231 | 1.6 | 3.2 | 0.00 | 0.00 | 0.00 | 2 | 1014.0 |
| 20260503081045 | 22 | 235 | 1.6 | 3.2 | 0.00 | 0.00 | 0.00 | 26 | 1017.1 |
| 20260503072036 | 21 | 306 | 1.6 | 1.6 | 0.00 | 0.00 | 0.00 | 31 | 1017.1 |
| 20260503071019 | 20 | 233 | 1.6 | 3.2 | 0.00 | 0.00 | 0.00 | 32 | 1017.1 |
| 20260503070106 | 20 | 215 | 3.2 | 3.2 | 0.00 | 0.00 | 0.00 | 32 | 1017.1 |
| 20260503055047 | 17 | 224 | 1.6 | 1.6 | 0.00 | 0.00 | 0.00 | 34 | 1017.1 |
| 20260503054030 | 17 | 235 | 1.6 | 3.2 | 0.00 | 0.00 | 0.00 | 34 | 1017.1 |
| 20260503053031 | 17 | 209 | 1.6 | 4.8 | 0.00 | 0.00 | 0.00 | 34 | 1017.1 |
| 20260503052047 | 16 | 203 | 0.0 | 1.6 | 0.00 | 0.00 | 0.00 | 35 | 1017.1 |
| 20260503051021 | 16 | 213 | 1.6 | 3.2 | 0.00 | 0.00 | 0.00 | 35 | 1017.1 |
| 20260503050031 | 16 | 225 | 0.0 | 1.6 | 0.00 | 0.00 | 0.00 | 35 | 1017.1 |
| 20260503045023 | 15 | 232 | 1.6 | 3.2 | 0.00 | 0.00 | 0.00 | 36 | 1017.1 |
| 20260503044021 | 15 | 216 | 0.0 | 1.6 | 0.00 | 0.00 | 0.00 | 36 | 1017.1 |
| 20260503043052 | 15 | 225 | 0.0 | 1.6 | 0.00 | 0.00 | 0.00 | 36 | 1017.1 |
| 20260503042027 | 15 | 207 | 1.6 | 1.6 | 0.00 | 0.00 | 0.00 | 36 | 1017.1 |
| 20260503041126 | 14 | 203 | 0.0 | 1.6 | 0.00 | 0.00 | 0.00 | 36 | 1017.1 |
| 20260503040034 | 14 | 248 | 0.0 | 1.6 | 0.00 | 0.00 | 0.00 | 36 | 1017.1 |
| 20260503035022 | 14 | 0.0 | 0.0 | 0.00 | 0.00 | 0.00 | 36 | 1017.1 | |
| 20260503034041 | 13 | 0.0 | 0.0 | 0.00 | 0.00 | 0.00 | 36 | 1017.1 | |
| 20260503033025 | 13 | 0.0 | 0.0 | 0.00 | 0.00 | 0.00 | 36 | 1017.1 | |
| 20260503032126 | 13 | 0.0 | 0.0 | 0.00 | 0.00 | 0.00 | 36 | 1017.1 | |
| 20260503031041 | 13 | 0.0 | 0.0 | 0.00 | 0.00 | 0.00 | 36 | 1017.1 | |
| 20260503030032 | 13 | 0.0 | 0.0 | 0.00 | 0.00 | 0.00 | 35 | 1017.1 | |
| 20260503025028 | 14 | 0.0 | 0.0 | 0.00 | 0.00 | 0.00 | 35 | 1017.1 | |
| 20260503024023 | 14 | 0.0 | 0.0 | 0.00 | 0.00 | 0.00 | 35 | 1017.1 | |
| 20260503023048 | 14 | 0.0 | 0.0 | 0.00 | 0.00 | 0.00 | 35 | 1017.1 | |
| 20260503022021 | 15 | 0.0 | 0.0 | 0.00 | 0.00 | 0.00 | 35 | 1017.1 | |
| 20260503021037 | 15 | 248 | 0.0 | 1.6 | 0.00 | 0.00 | 0.00 | 34 | 1017.1 |
| 20260503020041 | 15 | 0.0 | 0.0 | 0.00 | 0.00 | 0.00 | 34 | 1017.1 | |
| 20260503015046 | 15 | 225 | 0.0 | 1.6 | 0.00 | 0.00 | 0.00 | 34 | 1017.1 |
| 20260503014016 | 15 | 225 | 1.6 | 3.2 | 0.00 | 0.00 | 0.00 | 34 | 1017.1 |
| 20260503013023 | 15 | 217 | 1.6 | 3.2 | 0.00 | 0.00 | 0.00 | 34 | 1017.1 |
| 20260503012105 | 15 | 233 | 1.6 | 1.6 | 0.00 | 0.00 | 0.00 | 34 | 1017.1 |
| 20260503011031 | 15 | 225 | 0.0 | 1.6 | 0.00 | 0.00 | 0.00 | 34 | 1017.1 |
| 20260503010046 | 15 | 225 | 1.6 | 3.2 | 0.00 | 0.00 | 0.00 | 34 | 1017.1 |
| 20260503005043 | 15 | 228 | 1.6 | 3.2 | 0.00 | 0.00 | 0.00 | 34 | 1017.1 |
| 20260503004029 | 15 | 232 | 1.6 | 1.6 | 0.00 | 0.00 | 0.00 | 34 | 1017.1 |
| 20260503003019 | 15 | 221 | 1.6 | 1.6 | 0.00 | 0.00 | 0.00 | 33 | 1017.1 |
| 20260503002025 | 15 | 225 | 1.6 | 1.6 | 0.00 | 0.00 | 0.00 | 33 | 1017.1 |
| 20260503001121 | 15 | 210 | 1.6 | 3.2 | 0.00 | 0.00 | 0.00 | 33 | 1017.1 |
| 20260503000038 | 15 | 0.0 | 0.0 | 0.00 | 0.00 | 0.00 | 33 | 1017.1 | |
| 20260502235023 | 15 | 248 | 0.0 | 1.6 | 0.00 | 0.00 | 0.00 | 33 | 1017.1 |
| 20260502234041 | 15 | 0.0 | 0.0 | 0.00 | 0.00 | 0.00 | 32 | 1017.1 | |
| 20260502233019 | 15 | 0.0 | 0.0 | 0.00 | 0.00 | 0.00 | 32 | 1017.1 | |
| 20260502232019 | 15 | 0.0 | 0.0 | 0.00 | 0.00 | 0.00 | 32 | 1017.1 | |
| 20260502231045 | 15 | 239 | 0.0 | 1.6 | 0.00 | 0.00 | 0.00 | 33 | 1017.1 |
| 20260502230044 | 15 | 0.0 | 0.0 | 0.00 | 0.00 | 0.00 | 33 | 1017.1 | |
| 20260502225032 | 15 | 203 | 0.0 | 1.6 | 0.00 | 0.00 | 0.00 | 33 | 1017.1 |
| 20260502224049 | 15 | 0.0 | 0.0 | 0.00 | 0.00 | 0.00 | 32 | 1017.1 | |
| 20260502223024 | 15 | 0.0 | 0.0 | 0.00 | 0.00 | 0.00 | 32 | 1017.1 |